GW1942 Weather Reports


time (UTC)temp
F
wind
direction
speed
knots
gust
knots
rain 1hr
in
rain 24hr
in
rain mn
in
humidity
%
barometer
mb
20260504223035 70 91 2.6 7.0 0.00 0.00 0.00 31 1009.8
20260504221535 70 76 4.3 7.8 0.00 0.00 0.00 30 1009.9
20260504220034 71 66 1.7 5.2 0.00 0.00 0.00 31 1010.0
20260504214532 70 198 1.7 4.3 0.00 0.00 0.00 35 1010.0
20260504213031 69 89 2.6 7.8 0.00 0.00 0.00 35 1010.0
20260504211528 70 210 1.7 7.8 0.00 0.00 0.00 34 1010.0
20260504210036 70 121 3.5 8.7 0.00 0.00 0.00 32 1010.0
20260504204532 69 122 0.9 8.7 0.00 0.00 0.00 36 1010.2
20260504203136 68 118 3.5 7.8 0.00 0.00 0.00 34 1010.3
20260504201522 69 117 3.5 7.8 0.00 0.00 0.00 31 1010.3
20260504200022 69 80 4.3 12.2 0.00 0.00 0.00 34 1010.4
20260504194624 69 255 0.9 9.6 0.00 0.00 0.00 34 1010.4
20260504193016 68 111 5.2 7.8 0.00 0.00 0.00 34 1010.7
20260504191514 68 265 1.7 10.4 0.00 0.00 0.00 34 1010.5
20260504190012 67 110 5.2 10.4 0.00 0.00 0.00 33 1010.8
20260504184511 66 134 2.6 9.6 0.00 0.00 0.00 35 1011.0
20260504183010 66 68 0.0 4.3 0.00 0.00 0.00 35 1011.2
20260504181508 66 290 0.9 4.3 0.00 0.00 0.00 35 1011.2
20260504180006 65 328 0.9 5.2 0.00 0.00 0.00 37 1011.4
20260504174502 64 325 0.0 3.5 0.00 0.00 0.00 40 1011.5
20260504173006 64 46 1.7 4.3 0.00 0.00 0.00 36 1011.5
20260504171609 63 335 1.7 4.3 0.00 0.00 0.00 38 1011.8
20260504081534 42 167 0.0 1.7 0.00 0.00 0.00 79 1008.8
20260504050108 50 160 0.0 1.7 0.00 0.00 0.00 66 1008.3
20260504044513 53 134 0.0 2.6 0.00 0.00 0.00 58 1008.3
20260504043012 52 208 0.0 2.6 0.00 0.00 0.00 63 1008.3
20260504041523 56 199 0.0 1.7 0.00 0.00 0.00 55 1008.1
20260504040006 60 101 1.7 7.0 0.00 0.00 0.00 45 1007.9
20260504034504 59 141 0.9 5.2 0.00 0.00 0.00 52 1007.8
20260504033003 61 165 1.7 7.8 0.00 0.00 0.00 45 1007.5
20260504031503 62 144 2.6 7.0 0.00 0.00 0.00 44 1007.4
20260504030002 64 69 0.0 7.0 0.00 0.00 0.00 43 1007.4
20260504024503 67 75 0.0 2.6 0.00 0.00 0.00 35 1007.3
20260504023002 71 212 0.0 1.7 0.00 0.00 0.00 30 1007.0
20260504021500 75 220 0.0 1.7 0.00 0.00 0.00 29 1006.9
20260504020132 77 218 0.0 1.7 0.00 0.00 0.00 25 1006.9
20260504014602 77 238 0.0 4.3 0.00 0.00 0.00 23 1007.1
20260504013121 78 237 0.9 3.5 0.00 0.00 0.00 21 1007.2
20260504011555 78 292 0.0 5.2 0.00 0.00 0.00 21 1007.4
20260504010055 79 238 0.9 7.0 0.00 0.00 0.00 19 1007.4
20260504004552 79 315 2.6 7.8 0.00 0.00 0.00 19 1007.5
20260504003051 79 308 1.7 10.4 0.00 0.00 0.00 18 1007.5
20260504001553 79 36 2.6 6.1 0.00 0.00 0.00 21 1007.7
20260504000049 79 56 1.7 7.0 0.00 0.00 0.00 20 1007.8
20260503234547 79 55 1.7 4.3 0.00 0.00 0.00 21 1007.9
20260503233046 79 37 0.0 7.8 0.00 0.00 0.00 20 1008.0
20260503231546 79 64 1.7 5.2 0.00 0.00 0.00 20 1008.0
20260503230044 79 39 1.7 6.1 0.00 0.00 0.00 19 1008.2
20260503224542 79 224 0.9 6.1 0.00 0.00 0.00 17 1008.4